Temperature
30 31 31 31 31 31 31 31 30 30 30 30 30 30 30 29 28 28 27 26 25 25 24 23 23 23 22 21 21 20 20 19 19 19 18 18 18 18 18 18 18 17 17 17
29 30 31 30 31 31 31 31 31 30 30 31 30 30 29 29 28 27 26 25 25 24 23 23 23 22 22 21 21 20 20 19 19 18 18 18 18 18 18 18 17 17 17 17
28 30 29 29 30 30 30 31 31 30 30 30 29 28 28 28 27 26 26 25 24 23 23 22 22 21 21 21 20 20 19 19 19 18 18 18 18 18 18 17 17 17 17 17
28 28 27 29 31 31 30 30 31 30 30 30 29 28 28 27 26 25 25 24 24 23 22 22 21 21 20 20 20 19 19 19 18 18 18 18 18 18 17 17 17 17 17 17
27 27 27 29 30 31 30 29 31 30 30 29 29 28 27 26 25 25 24 24 23 23 22 21 21 20 20 19 19 19 18 18 18 18 18 18 17 17 17 17 17 17 17 16
26 26 26 28 30 30 30 28 30 29 29 29 28 27 27 25 25 24 24 23 22 22 21 21 20 20 19 19 19 18 18 18 18 17 17 17 17 17 17 17 17 16 16 16
26 26 27 28 29 29 27 27 28 28 28 27 27 26 25 24 24 23 23 22 22 21 21 20 20 19 19 19 19 18 18 18 17 17 17 17 17 17 16 16 16 16 16 16
26 25 26 28 28 27 26 26 27 27 26 25 25 25 24 23 23 22 22 21 21 20 20 19 19 19 18 18 18 18 17 17 17 17 17 17 17 16 16 16 16 16 16 16
26 26 26 27 26 26 26 26 26 25 25 24 24 23 23 23 22 21 21 20 20 19 19 18 18 18 18 18 17 17 17 17 17 17 17 17 16 16 16 16 15 15 15 15
25 26 26 26 26 25 25 25 25 25 24 24 23 23 23 22 21 21 20 20 19 19 18 17 17 17 17 17 17 17 16 16 16 16 16 16 16 16 16 15 15 15 15 15
24 25 25 25 25 24 24 24 24 24 24 23 23 22 22 21 20 20 19 19 18 18 17 17 17 16 16 16 16 16 16 16 16 16 16 16 16 16 16 16 15 15 15 15
24 24 24 24 24 23 23 23 23 23 23 22 22 21 21 20 20 19 19 18 18 17 17 17 16 16 16 16 16 16 15 15 15 15 16 16 16 15 15 15 15 15 15 14
23 23 23 23 23 23 23 23 23 22 22 22 21 20 20 19 19 18 18 18 17 17 16 16 16 16 16 15 15 15 15 15 15 15 15 15 15 15 15 15 14 14 14 14
22 22 22 22 22 22 22 22 22 22 21 21 20 20 19 19 18 18 17 17 17 16 16 16 15 15 15 15 15 15 15 15 15 15 15 15 15 15 14 14 14 14 14 14
21 21 22 21 21 21 22 21 21 21 21 20 19 19 19 18 18 17 17 16 16 16 15 15 15 14 15 15 15 15 15 15 15 15 15 15 14 14 14 14 14 14 13 13
20 21 21 21 21 21 21 21 20 20 19 19 18 18 18 17 17 16 16 16 16 15 15 14 14 14 14 14 14 14 14 14 14 14 14 14 14 14 14 14 13 13 13 13
19 20 20 20 20 20 20 20 19 19 18 18 18 17 17 16 16 16 15 15 15 15 14 14 14 14 14 14 14 14 14 14 14 14 14 14 13 13 13 13 13 13 13 12
19 19 19 19 19 19 19 18 18 18 17 17 17 16 16 16 15 15 15 15 14 14 14 14 13 13 13 13 13 13 13 13 14 14 13 13 13 13 13 13 13 12 12 12
18 19 19 18 18 18 18 18 17 17 16 16 16 16 15 15 15 14 14 14 14 14 13 13 13 13 13 13 13 13 13 13 13 13 13 13 13 13 13 12 12 12 12 11
18 18 18 18 18 17 17 17 17 16 16 16 15 15 14 14 14 14 14 14 14 14 13 13 13 13 13 13 13 13 13 13 13 13 13 12 12 12 12 12 12 12 11 11
17 17 18 17 17 17 17 17 16 16 15 15 15 14 14 14 14 14 14 14 13 13 13 13 13 13 12 12 12 12 12 12 12 12 12 12 12 12 12 11 11 11 11 11
16 17 17 16 16 16 16 16 16 15 15 15 14 14 14 14 14 14 13 13 13 13 13 12 12 12 12 12 12 12 12 12 12 12 12 12 12 12 11 11 11 11 11 10
15 15 15 15 15 15 15 15 15 15 14 14 14 14 14 14 14 14 13 13 13 12 12 12 12 12 12 12 12 12 12 12 12 12 11 11 11 11 11 11 11 11 10 10
14 14 14 14 14 14 14 14 14 14 14 14 14 13 13 13 13 13 13 13 12 12 12 12 12 12 12 12 12 12 12 12 11 11 11 11 11 11 11 10 10 10 10 10
14 14 14 14 14 14 14 14 14 14 13 13 13 13 13 13 13 12 12 12 12 12 12 12 12 12 12 11 12 12 11 11 11 11 11 11 11 11 10 10 10 10 10 9
14 14 14 13 13 13 13 13 13 13 13 13 13 13 13 12 12 12 12 12 12 12 12 11 11 11 11 11 11 11 11 11 11 11 11 11 10 10 10 10 10 9 9 9
13 13 13 13 13 13 13 13 13 13 13 13 13 13 12 12 12 12 12 11 11 11 11 11 11 11 11 11 11 11 11 11 11 11 10 10 10 10 10 9 9 9 9 9
Wind_Speed
15 14 14 14 14 13 13 13 12 8 7 4 0 2 3 5 4 4 5 5 4 3 3 2 2 4 4 4 5 6 7 7 7 6 5 5 5 5 4 4 4 3 3 3
15 15 16 16 14 14 14 13 12 9 7 3 1 2 4 4 3 3 3 3 4 3 3 3 3 4 4 4 5 5 6 6 6 5 5 5 5 5 4 4 4 3 3 3
15 14 15 16 13 12 12 12 11 8 5 2 2 2 2 3 2 2 2 2 3 2 3 3 3 3 4 4 5 5 5 5 5 6 5 5 6 5 5 4 4 4 4 4
14 15 18 12 10 11 12 11 10 5 3 2 1 1 2 2 3 3 1 1 2 2 2 3 3 3 3 4 4 5 5 5 5 6 6 5 5 5 5 4 4 4 4 4
12 14 15 13 10 9 9 9 7 4 2 1 1 1 2 5 5 4 2 2 2 2 2 3 2 2 3 3 4 5 5 5 5 5 5 5 5 5 4 4 4 4 4 4
11 13 14 10 9 7 8 8 3 1 2 1 0 2 1 4 4 3 3 3 3 2 3 4 3 2 2 3 3 3 4 4 4 5 5 5 5 4 4 3 4 4 3 4
13 14 11 8 5 5 7 3 4 3 3 2 2 2 3 4 4 3 4 4 4 3 3 3 3 3 1 2 2 2 3 3 3 4 4 5 4 4 4 4 4 4 4 4
12 14 9 4 2 2 3 5 5 4 4 5 5 4 4 4 3 3 3 4 3 3 3 3 2 2 1 1 0 1 2 3 3 3 4 4 3 4 4 4 4 4 4 4
8 7 1 3 3 2 2 3 4 3 3 4 3 1 1 2 3 2 2 2 3 3 3 3 2 1 1 1 1 1 2 2 3 3 3 3 4 4 4 4 4 4 3 3
5 4 3 3 3 3 3 3 4 3 2 1 2 2 1 2 2 2 2 2 2 2 2 1 1 1 0 0 1 1 2 2 2 3 3 3 3 4 4 4 4 3 3 3
6 4 4 3 3 4 4 4 5 5 3 3 3 2 1 2 3 2 2 1 1 1 2 1 1 0 0 0 1 2 2 2 3 3 3 2 2 1 2 2 3 3 2 2
5 3 4 4 4 5 5 4 5 5 4 2 2 1 1 1 2 2 2 1 0 1 2 2 1 1 0 1 1 1 2 3 3 3 2 3 3 1 4 2 2 3 2 2
4 4 5 6 6 6 5 4 4 4 3 2 2 2 1 1 2 2 2 2 2 2 1 1 1 1 1 1 1 2 3 3 3 2 2 3 3 3 2 2 3 3 2 3
6 5 4 5 6 6 4 4 3 3 3 1 2 2 2 2 2 2 2 2 1 1 1 1 1 0 0 1 2 2 3 2 3 2 2 2 2 3 3 3 2 2 1 3
5 5 4 5 4 5 3 3 2 2 1 1 1 2 2 2 2 2 2 1 1 1 1 1 1 1 2 2 2 2 3 2 2 2 2 1 1 1 2 2 2 2 2 2
6 5 5 6 5 5 3 3 3 1 0 1 1 1 1 2 2 2 2 1 1 1 1 1 0 0 1 2 2 3 2 2 2 2 2 2 2 2 2 1 1 1 2 2
6 5 5 6 6 5 5 3 2 0 1 2 2 1 1 1 2 2 1 1 1 2 2 2 1 1 1 2 3 3 2 2 3 3 2 2 2 2 2 1 1 1 1 2
7 6 5 5 5 4 4 2 1 1 0 2 1 1 2 1 1 2 1 1 1 2 1 1 1 1 1 2 3 3 3 2 2 2 1 2 3 3 2 2 2 2 1 1
6 6 4 4 4 3 3 1 0 1 1 1 1 1 1 1 1 2 1 1 1 1 0 1 0 2 1 1 2 2 3 3 2 1 1 2 3 3 2 2 2 2 1 1
6 5 4 4 4 3 2 0 0 0 0 1 1 2 1 1 1 1 1 2 1 1 1 1 1 2 1 1 3 3 3 3 2 2 2 2 3 3 3 2 2 2 1 1
5 5 4 3 3 3 2 0 0 0 1 1 2 2 2 1 1 1 1 1 1 2 0 2 2 1 1 2 4 3 3 2 2 2 2 2 1 2 2 2 2 2 2 2
4 3 3 3 4 3 2 1 1 1 1 1 2 2 2 2 2 1 0 0 1 2 1 1 0 2 2 3 3 3 2 2 2 2 2 2 2 2 2 3 3 2 2 2
4 4 4 4 4 3 2 1 0 1 1 1 1 1 2 1 2 1 1 0 1 0 1 1 2 1 3 4 4 3 2 2 2 2 2 2 2 2 2 3 3 3 2 2
3 3 3 3 3 2 2 1 1 1 1 2 2 1 2 2 1 1 0 2 2 1 1 1 1 2 4 3 3 2 2 2 2 2 2 2 2 2 3 3 3 2 2 3
2 2 2 2 2 1 1 1 0 0 1 1 1 0 1 0 0 1 1 1 2 1 1 2 4 5 4 3 3 2 2 2 3 3 3 3 3 2 2 2 2 2 2 2
2 2 2 2 2 2 1 1 1 1 1 1 1 1 1 1 1 1 1 0 0 1 1 2 3 4 3 3 2 2 2 2 2 2 2 2 2 2 2 2 3 2 1 1
1 1 1 2 2 2 2 1 1 1 1 1 1 1 1 0 0 0 1 1 1 2 2 2 2 2 2 2 2 2 2 2 2 3 3 2 2 2 2 2 2 2 2 2
Wind_Direction
261 267 270 265 267 268 266 271 274 277 280 277 176 175 133 118 118 115 125 128 118 112 116 147 156 154 159 173 177 178 172 179 184 186 184 182 180 182 183 192 203 192 204 218
260 262 265 269 264 268 269 267 265 265 266 268 72 86 104 108 122 126 120 138 135 132 136 179 180 165 163 175 169 167 174 181 176 178 184 187 183 187 188 194 203 199 208 215
262 256 260 258 256 262 265 268 268 265 275 310 75 73 121 138 144 136 128 140 127 154 165 171 168 163 172 169 159 160 174 179 175 180 186 190 193 189 197 198 202 205 208 211
257 264 260 261 257 257 261 265 271 264 240 240 157 155 88 98 99 104 145 132 118 166 137 140 145 159 167 168 161 170 178 183 183 186 189 188 193 198 200 200 207 213 214 209
253 255 258 263 266 259 263 267 274 276 267 220 239 122 104 80 72 71 62 84 100 107 122 118 119 136 154 167 174 182 185 187 189 190 193 190 195 200 199 202 208 215 210 197
247 255 259 265 274 283 274 256 280 316 327 334 329 258 111 71 68 60 60 65 70 79 96 108 116 130 168 177 177 189 188 190 193 192 197 197 197 197 198 205 212 217 207 183
244 251 257 280 302 302 264 289 6 15 11 11 9 13 83 81 78 68 61 63 65 65 87 101 119 140 189 195 191 200 185 179 189 195 200 196 193 194 197 213 217 213 195 182
244 249 251 313 296 303 354 358 356 13 25 39 39 53 81 79 77 80 77 67 60 56 66 87 113 131 155 191 190 156 171 184 190 196 213 202 192 200 208 219 213 208 194 190
253 254 342 1 3 24 1 343 342 355 20 34 29 7 99 110 103 99 94 83 72 70 65 60 54 74 139 171 175 186 200 214 207 202 210 201 196 202 204 212 214 212 196 197
255 235 254 273 300 328 337 330 320 316 320 266 248 246 192 140 124 112 94 98 94 98 99 74 43 25 77 149 177 207 219 222 207 209 218 215 207 203 204 210 217 213 207 211
263 278 283 263 285 296 298 305 307 306 286 251 252 234 174 128 127 126 107 85 98 128 128 131 127 59 267 189 187 233 239 235 226 221 214 203 180 202 200 201 211 208 217 194
255 285 291 280 280 286 285 283 283 285 291 259 242 242 216 159 137 137 150 153 187 165 155 154 153 169 218 204 190 220 244 247 239 227 200 189 168 113 39 56 85 107 108 148
293 293 289 291 294 291 278 275 276 267 263 261 222 190 182 178 171 166 171 178 188 186 177 167 159 171 178 243 210 229 247 261 259 240 206 197 187 175 161 92 76 77 108 146
334 322 306 304 297 294 271 270 265 257 254 243 212 186 188 193 183 178 187 195 178 165 198 199 163 169 272 273 230 238 254 264 273 264 246 209 208 202 191 188 179 174 149 164
325 320 314 313 310 299 285 274 268 263 244 200 172 179 177 165 154 146 150 154 130 167 194 172 106 20 353 310 277 258 264 266 273 271 268 253 238 234 221 215 197 167 149 162
305 307 321 325 324 313 295 273 265 257 195 104 73 72 113 131 131 136 136 148 163 159 119 103 97 310 319 305 289 268 260 248 255 267 260 263 266 270 262 236 214 167 179 176
298 299 306 314 318 314 310 304 286 236 148 122 116 116 118 118 121 114 114 115 90 78 78 76 32 2 342 319 300 293 292 268 239 247 251 266 278 275 269 264 256 226 219 171
284 288 290 293 301 309 311 311 322 342 54 118 140 154 135 142 146 107 85 90 92 86 86 92 67 354 332 345 325 311 301 285 272 263 250 250 260 261 258 248 250 250 250 176
286 287 292 299 301 296 274 262 16 58 54 96 144 141 113 138 143 155 146 168 198 207 161 83 197 258 296 14 314 279 279 276 271 288 293 272 261 265 264 259 263 264 230 179
287 294 295 302 303 302 296 353 43 77 118 156 129 121 119 136 141 165 179 218 231 220 128 139 228 263 284 320 295 281 287 292 285 275 264 260 267 269 270 266 266 260 238 202
293 285 284 305 312 313 316 343 217 160 105 118 137 153 161 174 191 217 238 256 103 103 183 226 237 278 323 310 276 270 276 286 279 278 281 275 275 280 282 282 270 251 231 225
306 318 333 332 330 333 352 5 77 107 122 137 148 168 178 190 200 220 327 241 127 107 220 269 319 59 356 302 276 272 268 271 274 289 301 298 292 284 279 278 271 257 239 235
353 356 350 341 336 336 344 348 110 135 150 162 174 227 238 230 234 227 250 169 118 99 284 333 81 81 308 288 286 282 285 295 300 300 301 293 287 285 280 278 278 276 274 268
1 360 349 344 342 344 344 334 337 159 192 207 209 218 240 249 259 250 136 111 99 131 335 78 170 259 275 271 275 288 307 312 306 295 283 273 268 267 270 269 272 267 271 280
344 341 333 332 331 318 332 342 341 15 283 263 215 211 256 187 35 27 59 104 140 177 290 242 225 248 259 272 279 287 305 311 305 308 305 310 307 300 287 292 301 289 278 283
337 321 328 321 322 316 288 267 256 243 258 272 305 288 262 141 131 138 151 211 230 232 259 264 250 236 252 264 275 272 266 265 271 274 290 302 305 307 313 323 314 307 303 297
327 324 333 308 305 298 306 307 307 291 273 287 304 295 287 281 232 319 318 293 294 304 305 292 295 283 276 287 297 296 294 303 322 334 328 326 320 316 321 320 308 305 300 284
Height
1460 1456 1456 1457 1457 1457 1461 1463 1469 1467 1466 1463 1461 1463 1465 1469 1473 1476 1479 1481 1484 1486 1488 1490 1492 1494 1495 1497 1499 1500 1501 1503 1504 1506 1507 1509 1510 1511 1512 1513 1514 1515 1516 1516
1464 1458 1456 1458 1456 1457 1457 1457 1459 1461 1463 1459 1460 1462 1466 1470 1473 1476 1479 1482 1483 1485 1487 1489 1491 1492 1493 1495 1496 1497 1499 1500 1502 1503 1505 1506 1508 1509 1510 1511 1511 1512 1512 1513
1469 1460 1461 1468 1458 1456 1456 1454 1456 1462 1461 1458 1462 1466 1468 1471 1474 1476 1479 1481 1483 1485 1486 1486 1488 1490 1491 1492 1494 1495 1497 1498 1500 1501 1502 1503 1505 1506 1507 1508 1508 1509 1510 1510
1468 1469 1480 1461 1447 1449 1452 1452 1451 1452 1455 1458 1463 1466 1468 1471 1473 1475 1478 1480 1482 1483 1484 1485 1486 1488 1489 1491 1492 1493 1495 1496 1498 1499 1500 1501 1502 1503 1504 1505 1506 1506 1507 1508
1468 1472 1467 1454 1447 1447 1452 1454 1449 1452 1454 1457 1461 1464 1468 1471 1473 1476 1478 1479 1481 1482 1483 1484 1485 1486 1487 1488 1490 1491 1492 1493 1495 1496 1497 1498 1499 1500 1501 1502 1503 1503 1504 1504
1467 1476 1476 1459 1446 1445 1449 1457 1451 1453 1455 1458 1461 1466 1469 1472 1474 1476 1478 1479 1480 1481 1481 1482 1483 1484 1485 1486 1487 1489 1490 1491 1492 1493 1494 1495 1496 1497 1498 1499 1500 1500 1501 1501
1465 1469 1461 1450 1447 1449 1464 1463 1455 1455 1458 1460 1463 1467 1470 1472 1474 1476 1478 1478 1479 1480 1480 1481 1481 1483 1484 1484 1485 1486 1488 1488 1489 1490 1491 1492 1493 1494 1495 1496 1496 1497 1497 1497
1462 1468 1466 1450 1450 1456 1460 1458 1457 1458 1461 1463 1465 1467 1469 1472 1474 1476 1477 1478 1479 1479 1479 1480 1481 1481 1481 1482 1483 1484 1485 1486 1486 1487 1488 1489 1490 1491 1492 1493 1493 1493 1494 1494
1456 1458 1454 1453 1454 1457 1458 1459 1460 1460 1462 1464 1467 1468 1469 1471 1473 1475 1476 1478 1479 1479 1479 1479 1479 1479 1480 1481 1481 1482 1482 1483 1484 1484 1485 1486 1486 1487 1488 1489 1489 1490 1491 1491
1453 1451 1452 1454 1456 1457 1459 1460 1461 1462 1462 1464 1466 1468 1469 1471 1472 1474 1476 1477 1478 1478 1478 1478 1478 1478 1478 1479 1479 1480 1480 1481 1481 1482 1482 1483 1484 1484 1485 1486 1486 1487 1488 1488
1453 1452 1453 1454 1456 1458 1459 1460 1461 1461 1462 1464 1465 1467 1468 1470 1471 1473 1475 1476 1476 1476 1477 1477 1477 1477 1477 1477 1477 1477 1478 1478 1479 1479 1479 1480 1480 1481 1482 1482 1483 1484 1484 1485
1453 1453 1454 1455 1456 1457 1458 1459 1460 1461 1462 1463 1465 1466 1467 1469 1470 1472 1473 1474 1474 1474 1474 1475 1475 1474 1475 1475 1475 1475 1476 1476 1476 1477 1477 1477 1477 1478 1478 1479 1480 1480 1481 1482
1452 1452 1453 1453 1453 1455 1456 1457 1459 1460 1461 1462 1463 1464 1466 1467 1469 1470 1471 1471 1471 1472 1472 1472 1472 1472 1472 1472 1473 1473 1473 1473 1474 1474 1474 1474 1474 1475 1475 1476 1477 1477 1478 1478
1453 1452 1452 1453 1454 1454 1454 1456 1457 1458 1460 1461 1462 1462 1463 1465 1466 1467 1468 1469 1469 1469 1469 1469 1469 1470 1470 1470 1470 1470 1471 1471 1471 1471 1472 1472 1472 1472 1472 1473 1473 1474 1474 1475
1454 1453 1453 1453 1453 1453 1454 1455 1456 1457 1458 1459 1460 1461 1462 1463 1464 1465 1466 1467 1466 1467 1467 1467 1467 1467 1467 1467 1468 1468 1468 1469 1469 1469 1469 1469 1470 1470 1470 1470 1470 1471 1471 1472
1455 1454 1454 1453 1453 1453 1453 1454 1455 1456 1457 1458 1459 1460 1461 1462 1463 1463 1464 1464 1464 1464 1465 1465 1465 1465 1465 1465 1465 1466 1466 1466 1467 1467 1467 1467 1468 1468 1468 1468 1468 1468 1469 1469
1455 1454 1454 1454 1453 1453 1453 1454 1454 1455 1456 1456 1457 1459 1460 1461 1461 1462 1462 1462 1463 1463 1463 1463 1463 1462 1462 1463 1463 1464 1464 1464 1465 1464 1465 1465 1466 1466 1466 1466 1466 1466 1467 1467
1455 1454 1454 1454 1454 1453 1453 1453 1454 1454 1455 1455 1456 1457 1458 1459 1459 1460 1460 1461 1461 1461 1462 1462 1461 1461 1461 1461 1461 1461 1462 1462 1463 1463 1463 1464 1464 1464 1464 1464 1464 1464 1465 1464
1454 1453 1453 1453 1453 1452 1452 1452 1453 1454 1454 1454 1455 1456 1456 1457 1458 1458 1459 1459 1459 1459 1460 1460 1460 1460 1460 1460 1460 1460 1460 1461 1461 1461 1461 1461 1462 1462 1462 1462 1462 1462 1462 1462
1452 1452 1452 1452 1451 1451 1450 1451 1452 1453 1453 1453 1454 1455 1455 1456 1457 1457 1458 1458 1458 1457 1458 1458 1459 1459 1459 1459 1459 1459 1459 1459 1459 1459 1459 1459 1459 1460 1460 1460 1460 1459 1459 1459
1450 1451 1451 1451 1451 1451 1450 1451 1451 1451 1452 1452 1453 1453 1454 1455 1455 1456 1456 1456 1457 1457 1457 1457 1457 1457 1457 1457 1457 1457 1457 1457 1457 1457 1457 1457 1456 1457 1457 1458 1457 1457 1457 1457
1450 1449 1449 1450 1450 1450 1450 1450 1450 1450 1451 1451 1452 1452 1453 1453 1454 1454 1454 1455 1454 1455 1455 1455 1455 1454 1454 1454 1455 1455 1455 1455 1455 1455 1455 1455 1454 1454 1455 1455 1455 1455 1454 1454
1449 1449 1449 1449 1449 1449 1449 1449 1449 1449 1450 1450 1450 1451 1451 1451 1452 1451 1452 1453 1452 1453 1453 1453 1453 1453 1453 1453 1453 1453 1453 1453 1453 1453 1453 1453 1452 1452 1452 1452 1452 1452 1451 1451
1448 1448 1449 1449 1449 1448 1448 1448 1448 1448 1449 1449 1449 1449 1449 1450 1450 1450 1450 1450 1450 1451 1451 1451 1451 1451 1451 1451 1451 1452 1451 1451 1451 1451 1451 1451 1450 1450 1449 1449 1449 1448 1448 1448
1449 1449 1449 1448 1447 1447 1447 1447 1447 1447 1447 1448 1448 1448 1448 1448 1448 1448 1448 1448 1448 1449 1449 1449 1449 1449 1449 1449 1450 1450 1450 1449 1449 1449 1449 1448 1448 1447 1447 1446 1446 1445 1445 1445
1448 1448 1447 1447 1447 1446 1446 1446 1446 1446 1446 1446 1446 1446 1447 1447 1447 1446 1446 1447 1447 1447 1447 1447 1447 1447 1447 1447 1448 1448 1447 1447 1447 1447 1447 1446 1445 1445 1444 1444 1443 1442 1442 1441
1447 1447 1447 1446 1446 1446 1446 1445 1445 1445 1445 1444 1444 1445 1445 1445 1446 1446 1446 1446 1446 1446 1446 1446 1446 1446 1446 1446 1446 1446 1446 1446 1445 1445 1444 1444 1443 1443 1442 1441 1441 1440 1439 1438